[[{"header":{"parameterUnit":"m.s-1","parameterCategory":1,"la1":30.2991,"la2":30.254,"lo1":-89.0895,"lo2":-89.0444,"dy":0.0017,"dx":0.0017,"nx":28,"ny":28,"refTime":"2024-03-24T09:00:00:Z","depth":0,"parameterNumber":2,"parameterNumberName":"U-component_of_WINDS"},"data":[0,0,0,0,0,0,0,0,0,0,0,0,0,0,0,0,0,0,0,0,0,0,0,0,0,0,0,0,0,0,0,0,0,0,0,0,0,0,0,0,0,0,0,0,0,0,0,0,0,0,0,0,0,0,0,0,0,0,-4.3731,-4.3732,0,-4.3834,-4.3835,-4.3836,-4.3878,-4.3878,-4.3877,-4.3877,-4.3978,-4.3981,-4.3984,0,0,0,0,0,0,0,0,0,0,0,0,0,-4.3566,-4.3569,-4.3731,-4.3732,-4.3734,-4.3834,-4.3835,-4.3837,-4.3878,-4.3878,-4.3877,-4.3877,-4.3977,-4.3981,-4.3984,0,0,0,0,0,0,0,0,0,0,0,0,0,-4.365,-4.357,-4.3731,-4.3766,-4.377,-4.3834,-4.3835,-4.3837,-4.3878,-4.3878,-4.3877,-4.3877,-4.3976,-4.398,-4.3985,-4.4019,0,0,-4.3998,-4.4,0,0,0,0,0,0,0,0,-4.3645,-4.3656,-4.376,-4.3764,-4.3769,-4.3843,-4.3814,-4.3898,-4.3878,-4.3837,-4.3877,-4.3877,-4.3933,-4.3941,-4.3961,-4.4023,-4.4028,-4.3998,-4.4001,-4.4003,-4.4004,0,0,0,0,0,0,0,-4.3639,-4.3652,-4.3772,-4.3761,-4.3767,-4.3776,-4.3787,-4.383,-4.3886,-4.384,-4.3844,-4.3856,-4.3936,-4.3957,-4.3964,-4.4029,-4.3998,-4.4002,-4.4005,-4.4007,-4.4125,-4.4125,0,0,0,0,0,0,-4.3628,-4.3647,-4.3768,-4.3775,-4.3705,-4.3779,-4.3792,-4.3819,-4.3885,-4.3895,-4.3856,-4.3857,-4.3949,-4.3959,-4.3967,-4.4012,-4.4003,-4.4007,-4.401,-4.4124,-4.4125,-4.4125,0,0,0,0,0,0,-4.3624,-4.3639,-4.3764,-4.3712,-4.3728,-4.3782,-4.3813,-4.3821,-4.3843,-4.3897,-4.3907,-4.3868,-4.3949,-4.3961,-4.4006,-4.4016,-4.4009,-4.4013,-4.4124,-4.4124,-4.4125,-4.41,0,0,0,0,0,0,-4.362,-4.3637,-4.3651,-4.3712,-4.3731,-4.3802,-4.3813,-4.3824,-4.3851,-4.3853,-4.3911,-4.392,-4.395,-4.3999,-4.401,-4.4022,-4.4016,-4.4123,-4.4124,-4.4125,-4.4101,-4.41,-4.41,0,0,0,0,0,-4.3614,-4.3639,-4.3652,-4.3666,-4.375,-4.3803,-4.3813,-4.3849,-4.3851,-4.3866,-4.3901,-4.3918,-4.4013,-4.4003,-4.4016,-4.4029,-4.4123,-4.4124,-4.4125,-4.4101,-4.41,-4.41,0,0,0,0,0,0,-4.3577,-4.3648,-4.3663,-4.3709,-4.375,-4.381,-4.3829,-4.3848,-4.3888,-4.3888,-4.393,-4.3942,-4.3983,-4.4011,-4.3999,-4.4066,-4.4069,-4.4073,-4.4046,-4.4046,-4.4046,-4.4038,-4.402,0,0,0,0,0,-4.3575,-4.3613,-4.3672,-4.3707,-4.3727,-4.3774,-4.3798,-4.3823,-4.3866,-4.3883,-4.3921,-4.3961,-4.4,-4.4025,-4.4063,-4.4105,-4.4118,-4.412,-4.412,-4.4119,-4.4122,-4.4145,-4.4147,-4.4129,-4.4129,-4.4129,0,0,-4.357,-4.3613,-4.3634,-4.3701,-4.3735,-4.3772,-4.3788,-4.3827,-4.3855,-4.3888,-4.3933,-4.3962,-4.401,-4.4053,-4.4074,-4.4077,-4.413,-4.4121,-4.412,-4.4123,-4.4147,-4.4148,-4.415,-4.413,-4.413,-4.413,0,0,-4.358,-4.3617,-4.365,-4.3685,-4.3737,-4.3769,-4.3776,-4.3834,-4.3855,-4.3901,-4.3927,-4.396,-4.4026,-4.4059,-4.4084,-4.4107,-4.4125,-4.4119,-4.4117,-4.414,-4.4141,-4.4142,-4.415,-4.4153,-4.4121,-4.4121,-4.4121,0,-4.3567,-4.3625,-4.3665,-4.3702,-4.373,-4.3764,-4.3798,-4.3829,-4.389,-4.3908,-4.3912,-4.3996,-4.403,-4.4082,-4.4087,-4.4107,-4.4116,-4.4112,-4.4138,-4.414,-4.4142,-4.415,-4.4152,-4.412,-4.412,-4.412,-4.412,0,-4.3606,-4.3646,-4.3667,-4.3727,-4.3758,-4.3793,-4.3837,-4.3863,-4.3884,-4.3915,-4.3961,-4.4004,-4.4052,-4.4066,-4.4086,-4.412,-4.412,-4.413,-4.4134,-4.4142,-4.415,-4.4153,-4.4119,-4.4119,-4.4119,-4.412,0,0,-4.3596,-4.3679,-4.3685,-4.3713,-4.3774,-4.3805,-4.3841,-4.389,-4.3911,-4.3952,-4.3983,-4.4039,-4.4049,-4.4077,-4.4102,-4.4122,-4.4137,-4.4129,-4.4131,-4.4129,-4.4177,-4.4169,-4.4172,-4.4149,-4.415,-4.4151,-4.4173,0,-4.3614,-4.3682,-4.3719,-4.3771,-4.3808,-4.3841,-4.3873,-4.3912,-4.3942,-4.3977,-4.4009,-4.4048,-4.4058,-4.4075,-4.4097,-4.4131,-4.4147,-4.413,-4.4178,-4.4179,-4.4165,-4.4176,-4.4168,-4.4187,-4.4176,-4.4177,-4.4177,0,-4.3644,-4.3687,-4.3743,-4.38,-4.3816,-4.3844,-4.3892,-4.3925,-4.3971,-4.3991,-4.4023,-4.4048,-4.4087,-4.4088,-4.4141,-4.4129,-4.415,-4.417,-4.4172,-4.4177,-4.4178,-4.4182,-4.4193,-4.4196,-4.4182,-4.4182,-4.4182,0,-4.3631,-4.3702,-4.3745,-4.3768,-4.3835,-4.3854,-4.3882,-4.3928,-4.3954,-4.3995,-4.4013,-4.4058,-4.4082,-4.4115,-4.4151,-4.4149,-4.42,-4.4205,-4.4217,-4.4216,-4.4226,-4.4225,-4.4242,-4.4241,-4.4241,-4.4241,-4.4241,0,-4.3647,-4.368,-4.374,-4.3767,-4.3804,-4.3846,-4.3881,-4.3912,-4.3952,-4.3984,-4.4015,-4.4044,-4.409,-4.4124,-4.4152,-4.4192,-4.4203,-4.4219,-4.4226,-4.4217,-4.4214,-4.4231,-4.423,-4.4241,-4.4241,-4.4241,-4.4241,0,-4.3639,-4.368,-4.3729,-4.3789,-4.3805,-4.383,-4.388,-4.3907,-4.3938,-4.3978,-4.399,-4.4039,-4.4081,-4.4121,-4.4176,-4.4195,-4.4235,-4.4244,-4.422,-4.4224,-4.4234,-4.4233,-4.4262,-4.4267,-4.4262,-4.4262,-4.4262,0,-4.3646,-4.3673,-4.3736,-4.376,-4.3788,-4.3827,-4.3855,-4.3896,-4.3924,-4.3978,-4.3998,-4.4043,-4.4081,-4.4147,-4.4186,-4.4229,-4.4239,-4.4247,-4.4246,-4.4235,-4.4239,-4.4237,-4.424,-4.4246,-4.4246,-4.4245,-4.4245,0,-4.3655,-4.3675,-4.3714,-4.3762,-4.3795,-4.3833,-4.3873,-4.3891,-4.3939,-4.3969,-4.4013,-4.4043,-4.4101,-4.4145,-4.4192,-4.422,-4.4241,-4.4245,-4.4251,-4.4241,-4.4226,-4.4234,-4.4218,-4.4244,-4.4245,-4.4245,-4.4245,-4.4245,-4.3655,-4.368,-4.3728,-4.3772,-4.3806,-4.3843,-4.387,-4.3906,-4.3944,-4.3995,-4.4017,-4.4062,-4.4107,-4.4173,-4.4201,-4.4236,-4.424,-4.4247,-4.4249,-4.425,-4.4248,-4.422,-4.4244,-4.4245,-4.4245,-4.4245,-4.4245,0,-4.3665,-4.3698,-4.3738,-4.3793,-4.3827,-4.3845,-4.3889,-4.3916,-4.3956,-4.3996,-4.4034,-4.4085,-4.4127,-4.4171,-4.4216,-4.4235,-4.4246,-4.4246,-4.4245,-4.4251,-4.4242,-4.4233,-4.4237,-4.4237,-4.4237,-4.4237,-4.4237,-4.4237,-4.3675,-4.3718,-4.3743,-4.3804,-4.3836,-4.3882,-4.3906,-4.3939,-4.3972,-4.4028,-4.4064,-4.4092,-4.4134,-4.4182,-4.4222,-4.4234,-4.4249,-4.4246,-4.426,-4.4251,-4.4251,-4.4251,-4.4243,-4.4249,-4.4249,-4.4266,-4.4266,-4.4266]},{"header":{"parameterUnit":"m.s-1","parameterCategory":1,"la1":30.2991,"la2":30.254,"lo1":-89.0895,"lo2":-89.0444,"dy":0.0017,"dx":0.0017,"nx":28,"ny":28,"refTime":"2024-03-24T09:00:00:Z","depth":0,"parameterNumber":3,"parameterNumberName":"V-component_of_WINDS"},"data":[0,0,0,0,0,0,0,0,0,0,0,0,0,0,0,0,0,0,0,0,0,0,0,0,0,0,0,0,0,0,0,0,0,0,0,0,0,0,0,0,0,0,0,0,0,0,0,0,0,0,0,0,0,0,0,0,0,0,8.3106,8.3106,0,8.3131,8.3131,8.3131,8.3055,8.3053,8.305,8.3048,8.3071,8.3073,8.3076,0,0,0,0,0,0,0,0,0,0,0,0,0,8.2991,8.2994,8.3106,8.3106,8.3107,8.3131,8.3131,8.3131,8.3055,8.3053,8.305,8.3047,8.307,8.3073,8.3076,0,0,0,0,0,0,0,0,0,0,0,0,0,8.3031,8.2995,8.3106,8.3072,8.3069,8.3131,8.3131,8.3132,8.3056,8.3053,8.3049,8.3046,8.3069,8.3073,8.3077,8.3172,0,0,8.3089,8.3091,0,0,0,0,0,0,0,0,8.3029,8.3035,8.3076,8.3074,8.3071,8.3086,8.3099,8.3145,8.3057,8.3061,8.3048,8.3044,8.3079,8.3082,8.3094,8.3173,8.3174,8.309,8.3092,8.3094,8.3095,0,0,0,0,0,0,0,8.3026,8.3034,8.3116,8.3077,8.3074,8.3055,8.3056,8.3107,8.3089,8.306,8.3055,8.3059,8.3076,8.309,8.3094,8.3174,8.309,8.3093,8.3096,8.3098,8.3336,8.3339,0,0,0,0,0,0,8.3028,8.3032,8.3115,8.3116,8.3041,8.306,8.3061,8.3085,8.3088,8.3085,8.3062,8.3055,8.3085,8.3089,8.3094,8.3208,8.3094,8.3098,8.31,8.3332,8.3336,8.3341,0,0,0,0,0,0,8.3026,8.3036,8.3114,8.3073,8.3081,8.3065,8.3092,8.3087,8.3101,8.3089,8.3085,8.3079,8.3082,8.3088,8.3154,8.3207,8.31,8.3104,8.3327,8.3333,8.3339,8.3435,0,0,0,0,0,0,8.3023,8.3036,8.3072,8.3074,8.3084,8.3174,8.3095,8.309,8.3109,8.31,8.3105,8.3102,8.308,8.3148,8.3158,8.3211,8.3107,8.3322,8.333,8.3337,8.3427,8.3443,8.3457,0,0,0,0,0,8.3019,8.3097,8.3074,8.3085,8.3129,8.3177,8.3182,8.3156,8.3113,8.3149,8.3142,8.3102,8.32,8.3156,8.3166,8.3221,8.3319,8.3328,8.3336,8.342,8.344,8.3457,0,0,0,0,0,0,8.31,8.3096,8.3071,8.3152,8.3166,8.3164,8.3209,8.3178,8.3203,8.3194,8.3159,8.3161,8.3233,8.3233,8.3184,8.3315,8.3252,8.3263,8.3312,8.3331,8.3346,8.3344,8.311,0,0,0,0,0,8.3127,8.3168,8.3162,8.3234,8.3242,8.3225,8.3245,8.3224,8.3236,8.3241,8.3238,8.3251,8.3285,8.3308,8.3338,8.3426,8.3427,8.347,8.3485,8.3497,8.3507,8.3556,8.3576,8.3369,8.3369,8.3369,0,0,8.3183,8.3187,8.3214,8.325,8.3258,8.3301,8.323,8.3277,8.3308,8.3247,8.331,8.3309,8.3321,8.3399,8.3433,8.3402,8.3565,8.3508,8.3518,8.3522,8.3567,8.3587,8.3604,8.3375,8.3374,8.3373,0,0,8.3309,8.3315,8.3377,8.3387,8.3401,8.3389,8.3404,8.3408,8.3405,8.3468,8.3424,8.346,8.3519,8.353,8.3543,8.3676,8.364,8.3687,8.3766,8.3814,8.383,8.3845,8.3894,8.3911,8.3697,8.3697,8.3697,0,8.3377,8.344,8.3412,8.3463,8.3481,8.343,8.3493,8.3503,8.3526,8.3539,8.3504,8.3578,8.3582,8.3664,8.3696,8.3708,8.3725,8.3686,8.383,8.3844,8.3857,8.3904,8.3922,8.3703,8.3702,8.3701,8.3701,0,8.3524,8.3569,8.3617,8.3642,8.3665,8.3722,8.3703,8.3729,8.3707,8.3699,8.3765,8.3768,8.38,8.3817,8.3795,8.3896,8.3876,8.3836,8.3773,8.3883,8.3926,8.3944,8.3711,8.3709,8.3707,8.3706,0,0,8.3699,8.3711,8.3729,8.3741,8.3754,8.3787,8.3842,8.3875,8.3899,8.3917,8.3962,8.4015,8.3978,8.3994,8.3972,8.4014,8.4122,8.3969,8.3969,8.3999,8.4236,8.4267,8.4288,8.4098,8.4101,8.4104,8.4235,0,8.3823,8.3919,8.3897,8.3991,8.4033,8.3986,8.4034,8.4047,8.4042,8.4077,8.407,8.4108,8.4057,8.4066,8.4106,8.41,8.4169,8.409,8.4141,8.4143,8.414,8.431,8.4342,8.4466,8.4252,8.4254,8.4256,0,8.3981,8.4008,8.4107,8.4116,8.4132,8.4176,8.4205,8.4239,8.4253,8.4246,8.4265,8.4236,8.4291,8.4227,8.4302,8.425,8.4269,8.427,8.4274,8.4278,8.4207,8.432,8.4504,8.4524,8.4282,8.428,8.4278,0,8.4101,8.4162,8.423,8.4241,8.4252,8.4285,8.429,8.4301,8.4323,8.4348,8.4362,8.4393,8.441,8.4434,8.4415,8.437,8.4494,8.4428,8.4491,8.4492,8.4519,8.4518,8.4711,8.453,8.453,8.453,8.4529,0,8.4243,8.4306,8.4284,8.4326,8.4396,8.437,8.4439,8.4439,8.445,8.4491,8.4452,8.4491,8.4462,8.4499,8.4484,8.455,8.4557,8.4554,8.4549,8.4558,8.4559,8.4571,8.4562,8.4534,8.4533,8.4532,8.4532,0,8.4389,8.4377,8.4448,8.4454,8.4457,8.4508,8.4513,8.4552,8.4545,8.4597,8.4608,8.4597,8.4638,8.4621,8.4665,8.4654,8.474,8.4723,8.4736,8.4732,8.4796,8.4791,8.5004,8.5032,8.4832,8.4834,8.4836,0,8.4481,8.4529,8.4541,8.4567,8.4577,8.4618,8.4641,8.4617,8.4642,8.4664,8.4701,8.4739,8.4769,8.4838,8.4833,8.4867,8.4852,8.4924,8.4856,8.4865,8.4855,8.4853,8.4858,8.4938,8.494,8.4942,8.4944,0,8.4647,8.4639,8.4674,8.4708,8.4737,8.4762,8.4783,8.4806,8.4784,8.4814,8.4858,8.4881,8.4927,8.4967,8.4997,8.5002,8.497,8.4965,8.4982,8.4992,8.4998,8.4997,8.4774,8.496,8.4959,8.4957,8.4957,8.4956,8.477,8.4811,8.4827,8.4868,8.4882,8.4904,8.4942,8.494,8.4977,8.5013,8.4997,8.5048,8.5062,8.51,8.511,8.515,8.5121,8.5145,8.5151,8.5157,8.5167,8.4991,8.5155,8.5154,8.5154,8.5153,8.5153,0,8.4935,8.4943,8.4981,8.5014,8.5047,8.5015,8.5037,8.5067,8.5112,8.513,8.5161,8.5212,8.525,8.5249,8.5285,8.5317,8.5303,8.5327,8.5325,8.5327,8.5189,8.5172,8.5338,8.5338,8.5338,8.5338,8.5338,8.5338,8.5024,8.5094,8.5088,8.5165,8.5172,8.5223,8.5239,8.5259,8.5273,8.5332,8.5365,8.5365,8.5375,8.5412,8.5446,8.5444,8.546,8.549,8.5484,8.5355,8.5337,8.5319,8.5303,8.5494,8.5494,8.5619,8.562,8.5621]}]]